"Pseudo-MPEC" for P10RpQP

Created 2019 Sep 22 21:07:37 UT using Find_Orb

Click here for an explanation of pseudo-MPECs

 
 Astrometry: 
     P10RpQP  C2019 09 06)x?3AstrometryL1bFHn8b,5]wO]Q4HWW2%1o$P\*a]1#)eLwWh]F51
     P10RpQP  C2019 09 06l%Z.TSF_An=xBdvF:2QVoYx[_O8'g*,G8;T8v,qNg:8=:SOEcE;vF51
     P10RpQP  C2019 09 06wv6M4=:$;1?pIslVktw+3:y@iE)h`Yf]o9Kg-jkHU0r$)4N913LKF51
     P10RpQP |C2019 09 083Fo2)]LbIc25y#YD4.x8kq'@08S6f\3R?p%[tBmjWFn6jtJRL=DC807
     P10RpQP |C2019 09 08Dd-6qCT8YgjR^I42l'I(J:LD%K5InYgp^y$v3lAe*jy6[r`cCT5A807
     P10RpQP |C2019 09 08r:lb=aA^=kCpsOn;F9nOO4581C(SpBredacted;yX::SxWyuNooW807
     P10RpQP |C2019 09 20e=L1VA',pouc'?k453gG'click(9y!gHJyghereBKxxlY*=OVyqD807
     P10RpQP |C2019 09 20h^15fmiF-C!NEM3HSeFyEQt1B*dmNRR9Ar-d:-?BSEp@m#+nPy?J807
     P10RpQP |C2019 09 200;Tt/\av!Y)eQwMJsZpi=F+1Ifor\0h,t);Hlw(explanation-M807
     P10RpQP KC2019 09 22.17242 22 52 46.74 -12 59 16.9    ~9M77 21.0 RoNEOCP291
     P10RpQP KC2019 09 22.18362 22 52 47.24 -12 59 17.8    ~9M77 22.2 RoNEOCP291
     P10RpQP KC2019 09 22.19483 22 52 47.73 -12 59 18.7    ~9M77 21.8 RoNEOCP291

Station data:
(291) LPL/Spacewatch II  (N31.961669 W111.599905)  US/Arizona.  Observers J.
   V. Scotti, R. S. McMillan. 1.8-m f/2.7 reflector + CCD.
(807) Cerro Tololo Observatory, La Serena  (S30.169136 W70.805900)  Chile.
(F51) Pan-STARRS 1, Haleakala  (N20.707235 W156.255910)  US/Hawaii.
   Observers N. Primak, A. Schultz, S. Watters, J. Thiel, T. Goggia. Measurer
   PS1 Science Consortium. 1.8-m Ritchey-Chrétien + CCD.

Orbital elements:  P10RpQP
   Perihelion 2019 Sep 9.406132 +/- 0.0924 TT =  9:44:49 (JD 2458735.906132)
Epoch 2019 Sep 22.0 TT = JDT 2458748.5   Earth MOID: 0.3929   Ma: 0.0189
M   2.59961077 +/- 0.030            (J2000 ecliptic)          AutoNEOCP
n   0.20641877 +/- 0.00124          Peri.  199.48450 +/- 0.07
a   2.83554526 +/- 0.0114           Node   144.29718 +/- 0.008
e   0.5060608 +/- 0.0016            Incl.    3.34846 +/- 0.006
P   4.77                   H 22.4   G  0.15   U  8.2  
q 1.40058693 +/- 0.00105    Q 4.27050359 +/- 0.0214
From 12 observations 2019 Sept. 6-22; mean residual 0".20
Residuals in arcseconds: 
190906 F51  .07+  .11-    190908 807  .16+  .21+    190920 807  .16+  .17-    
190906 F51  .02+  .08-    190908 807  .12+  .35-    190922 291  .05-  .27+    
190906 F51  .01+  .14-    190920 807  .16+  .08-    190922 291  .01-  .11+    
190908 807  .43-  .57+    190920 807  .14-  .16-    190922 291  .08-  .07-    

Ephemerides (geocentric):
Date (UTC) HH   RA              Dec         delta   r     elong  mag " sig PA
---- -- -- --  -------------   -----------  ------ ------ -----  --- ---- ---
2019 09 22 21  22 53 22.169   -12 59 36.18  .42240 1.4075 159.7 22.1 .327  13
2019 09 22 22  22 53 24.323   -12 59 37.83  .42252 1.4075 159.6 22.1 .335  13
2019 09 22 23  22 53 26.480   -12 59 39.45  .42264 1.4076 159.6 22.1 .344  13
2019 09 23 00  22 53 28.638   -12 59 41.03  .42275 1.4076 159.6 22.1 .353  13
2019 09 23 01  22 53 30.798   -12 59 42.57  .42287 1.4077 159.5 22.1 .362  13
2019 09 23 02  22 53 32.960   -12 59 44.08  .42299 1.4077 159.5 22.1 .371  13
2019 09 23 03  22 53 35.123   -12 59 45.55  .42311 1.4077 159.5 22.1 .379  13
2019 09 23 04  22 53 37.288   -12 59 46.99  .42323 1.4078 159.4 22.1 .388  13
2019 09 23 05  22 53 39.455   -12 59 48.39  .42334 1.4078 159.4 22.1 .397  13
2019 09 23 06  22 53 41.624   -12 59 49.76  .42346 1.4079 159.4 22.1 .406  13
2019 09 23 07  22 53 43.794   -12 59 51.09  .42358 1.4079 159.3 22.1 .415  13
2019 09 23 08  22 53 45.966   -12 59 52.39  .42370 1.4080 159.3 22.1 .424  13
2019 09 23 09  22 53 48.140   -12 59 53.65  .42382 1.4080 159.3 22.1 .434  13
2019 09 23 10  22 53 50.316   -12 59 54.88  .42394 1.4080 159.2 22.1 .443  13
2019 09 23 11  22 53 52.493   -12 59 56.07  .42406 1.4081 159.2 22.1 .452  13
2019 09 23 12  22 53 54.672   -12 59 57.22  .42418 1.4081 159.2 22.1 .461  13
2019 09 23 13  22 53 56.853   -12 59 58.34  .42430 1.4082 159.1 22.1 .470  14
2019 09 23 14  22 53 59.036   -12 59 59.43  .42442 1.4082 159.1 22.1 .480  14
2019 09 23 15  22 54 01.220   -13 00 00.48  .42454 1.4083 159.1 22.1 .489  14
2019 09 23 16  22 54 03.406   -13 00 01.49  .42467 1.4083 159.1 22.1 .499  14
2019 09 23 17  22 54 05.594   -13 00 02.47  .42479 1.4084 159.0 22.1 .508  14
2019 09 23 18  22 54 07.784   -13 00 03.41  .42491 1.4084 159.0 22.1 .517  14
2019 09 23 19  22 54 09.975   -13 00 04.32  .42503 1.4084 159.0 22.1 .527  14
2019 09 23 20  22 54 12.168   -13 00 05.19  .42515 1.4085 158.9 22.1 .537  14
2019 09 23 21  22 54 14.363   -13 00 06.03  .42528 1.4085 158.9 22.1 .546  14
2019 09 23 22  22 54 16.560   -13 00 06.83  .42540 1.4086 158.9 22.1 .556  14
2019 09 23 23  22 54 18.759   -13 00 07.59  .42552 1.4086 158.8 22.1 .565  14
2019 09 24 00  22 54 20.959   -13 00 08.32  .42564 1.4087 158.8 22.1 .575  14
2019 09 24 01  22 54 23.161   -13 00 09.01  .42577 1.4087 158.8 22.1 .585  14
2019 09 24 02  22 54 25.365   -13 00 09.67  .42589 1.4088 158.7 22.2 .595  14
2019 09 24 03  22 54 27.570   -13 00 10.29  .42602 1.4088 158.7 22.2 .605  14
2019 09 24 04  22 54 29.778   -13 00 10.88  .42614 1.4089 158.7 22.2 .614  14
2019 09 24 05  22 54 31.987   -13 00 11.43  .42626 1.4089 158.6 22.2 .624  14
2019 09 24 06  22 54 34.198   -13 00 11.94  .42639 1.4090 158.6 22.2 .634  14
2019 09 24 07  22 54 36.411   -13 00 12.42  .42651 1.4090 158.6 22.2 .644  14
2019 09 24 08  22 54 38.625   -13 00 12.86  .42664 1.4090 158.5 22.2 .654  14
2019 09 24 09  22 54 40.841   -13 00 13.27  .42676 1.4091 158.5 22.2 .664  14
2019 09 24 10  22 54 43.060   -13 00 13.64  .42689 1.4091 158.5 22.2 .675  14
2019 09 24 11  22 54 45.279   -13 00 13.98  .42702 1.4092 158.4 22.2 .685  14
2019 09 24 12  22 54 47.501   -13 00 14.28  .42714 1.4092 158.4 22.2 .695  14
2019 09 24 13  22 54 49.725   -13 00 14.54  .42727 1.4093 158.4 22.2 .705  14
2019 09 24 14  22 54 51.950   -13 00 14.77  .42739 1.4093 158.3 22.2 .715  14
2019 09 24 15  22 54 54.177   -13 00 14.96  .42752 1.4094 158.3 22.2 .726  14
2019 09 24 16  22 54 56.406   -13 00 15.12  .42765 1.4094 158.3 22.2 .736  14
2019 09 24 17  22 54 58.637   -13 00 15.24  .42778 1.4095 158.2 22.2 .746  14
2019 09 24 18  22 55 00.869   -13 00 15.32  .42790 1.4095 158.2 22.2 .757  14
2019 09 24 19  22 55 03.104   -13 00 15.37  .42803 1.4096 158.2 22.2 .767  14
2019 09 24 20  22 55 05.340   -13 00 15.38  .42816 1.4096 158.1 22.2 .778  14